Location: Del Amo
(33.8464°N, 118.2104°W)
Time: 19:59:00
(UTC+00:00)

S-56A Canister/Altair - Pass Details

Date: 19 September 2024
Orbit: 636 x 2487 km, 38.9° (Epoch: 14 October)

Event Time Altitude Azimuth Distance (km) Brightness Sun altitude
Rises 05:42:11 0° 291° (WNW) 3,745 11.7 -44.3°
Reaches altitude 10° 05:44:26 10° 290° (WNW) 2,980 11.0 -44.7°
Enters shadow 05:47:38 32° 289° (WNW) 2,024 9.8 -45.1°
Maximum altitude 05:51:56 84° 204° (SSW) 1,488 - -45.7°
Drops below altitude 10° 06:03:32 10° 117° (ESE) 4,461 - -47.4°
Sets 06:07:39 0° 117° (ESE) 5,696 - -47.9°
